Location: Peebles
(55.6412°N, 3.1714°W)
Time: 21:58:52
(UTC+00:00)

FENGYUN 1C DEB - Pass Details

Date: 07 February 2023
Orbit: 707 x 862 km, 98.5° (Epoch: 07 November)

Event Time Altitude Azimuth Distance (km) Brightness Sun altitude
Rises 19:05:25 0° 156° (SSE) 3,392 ? -17.9°
Reaches altitude 10° 19:07:46 10° 155° (SSE) 2,468 ? -18.3°
Maximum altitude 19:13:16 77° 71° (ENE) 879 ? -19.0°
Drops below altitude 10° 19:18:48 10° 346° (NNW) 2,480 ? -19.8°
Sets 19:21:10 0° 345° (NNW) 3,410 ? -20.1°
